Home > Weather > Irvine > Past weeks

Flag for USA Weather for the Past 2 Weeks in Irvine, California, USA

Now
65 °F

Scattered clouds.


Feels Like: 65 °F
Forecast: 53 / 68 °F
Wind: 10 mph from Southwest

Location: John Wayne Airport-Orange County Airport

Current Time: Apr 28, 2016 at 1:31:07 PM

Latest Report: Apr 28, 2016 at 12:53 PM


Visibility: 10 mi

Pressure: 29.87 "Hg

Humidity: 52%

Dew Point: 47 °F

Location of IrvineLocation

Historic Weather in Irvine — Graph

°F

Irvine Temperature Yesterday

Maximum temperature yesterday: 68 °F (at 1:53 PM)
Minimum temperature yesterday: 55 °F (at 5:53 AM)
Average temperature yesterday: 61 °F

High & Low Weather Summary for the Past Weeks

 TemperatureHumidityPressure
High88 °F (Apr 17, 11:53 AM)90% (Apr 22, 2:53 AM)30.13 "Hg (Apr 22, 2:53 AM)
Low52 °F (Apr 26, 4:53 AM)7% (Apr 17, 11:53 AM)29.75 "Hg (Apr 27, 11:53 PM)
Average66 °F54%29.93 "Hg
* Reported Apr 13 11:53 AM — Apr 28 11:53 AM, Irvine, Weather by CustomWeather, © 2016

Note: Actual official high and low records may vary slightly from our data, if they occured in-between our weather recording intervals... More about our weather records

Advertising

Irvine Weather History for the Previous 24 Hours

Scroll right to see more
 ConditionsComfort  
Time TempWeatherWind HumidityBarometerVisibility
11:53 AM
Thu, Apr 28
65 °FScattered clouds.14 mph52%29.87 "Hg10 mi
10:53 AM64 °FScattered clouds.12 mph54%29.85 "Hg10 mi
9:53 AM60 °FBroken clouds.3 mph62%29.84 "Hg10 mi
8:53 AM59 °FScattered clouds.No wind67%29.83 "Hg10 mi
7:53 AM57 °FBroken clouds.6 mph72%29.83 "Hg9 mi
6:53 AM55 °FPassing clouds.6 mph72%29.80 "Hg10 mi
5:53 AM55 °FPassing clouds.8 mph72%29.78 "Hg10 mi
4:53 AM54 °FMostly cloudy.9 mph77%29.77 "Hg10 mi
3:53 AM54 °FOvercast.12 mph80%29.76 "Hg10 mi
2:53 AM56 °FOvercast.3 mph75%29.75 "Hg10 mi
1:53 AM56 °FOvercast.No wind72%29.76 "Hg9 mi
12:53 AM56 °FOvercast.3 mph70%29.75 "Hg9 mi
11:53 PM
Wed, Apr 27
56 °FOvercast.7 mph70%29.75 "Hg9 mi
10:53 PM57 °FFog.9 mph64%29.76 "Hg6 mi
9:53 PM59 °FPassing clouds.13 mph56%29.77 "Hg10 mi
9:00 PM61 °FMostly cloudy.7 mph72%29.77 "Hg10 mi
8:53 PM60 °FPassing clouds.8 mph72%29.77 "Hg10 mi
7:53 PM61 °FPassing clouds.7 mph75%29.77 "Hg10 mi
6:53 PM62 °FScattered clouds.12 mph73%29.78 "Hg10 mi
5:53 PM63 °FScattered clouds.9 mph60%29.80 "Hg10 mi
4:53 PM66 °FScattered clouds.10 mph50%29.78 "Hg10 mi
3:53 PM65 °FScattered clouds.9 mph56%29.82 "Hg10 mi
2:53 PM66 °FScattered clouds.10 mph50%29.84 "Hg10 mi
1:53 PM68 °FPassing clouds.13 mph55%29.85 "Hg10 mi
Weather by CustomWeather, © 2016

See weather overviewHow to use our weather pages